�������l�o���
Date,Time,MP-1(��Sv/h),MP-2(��Sv/h),MP-3(��Sv/h),MP-4(��Sv/h),MP-5(��Sv/h),MP-6(��Sv/h),MP-7(��Sv/h),MP-8(��Sv/h),����,����(m/s),���J
2022/03/18,00:00,0.588,0.877,0.559,1.080,0.770,0.349,0.612,0.578,�k,4.3,��
2022/03/18,00:10,0.588,0.877,0.559,1.081,0.770,0.350,0.612,0.577,�k,4.5,��
2022/03/18,00:20,0.588,0.877,0.559,1.080,0.769,0.349,0.613,0.579,�k,3.9,��
2022/03/18,00:30,0.589,0.878,0.559,1.080,0.770,0.349,0.612,0.578,�k�k��,4.7,��
2022/03/18,00:40,0.589,0.878,0.558,1.079,0.771,0.350,0.613,0.578,�k,4.4,��
2022/03/18,00:50,0.589,0.877,0.559,1.081,0.771,0.350,0.611,0.578,�k,4.1,��
2022/03/18,01:00,0.587,0.877,0.560,1.080,0.771,0.349,0.613,0.579,�k,3.9,��
2022/03/18,01:10,0.589,0.876,0.559,1.083,0.770,0.349,0.613,0.578,�k,4.7,��
2022/03/18,01:20,0.589,0.879,0.559,1.079,0.771,0.350,0.611,0.577,�k,2.5,��
2022/03/18,01:30,0.591,0.875,0.559,1.082,0.772,0.350,0.612,0.578,�k,2.6,��
2022/03/18,01:40,0.589,0.876,0.561,1.082,0.769,0.349,0.613,0.578,�k�k��,2.8,��
2022/03/18,01:50,0.589,0.880,0.561,1.081,0.768,0.350,0.613,0.578,�k�k��,2.0,��
2022/03/18,02:00,0.588,0.876,0.560,1.079,0.770,0.349,0.612,0.578,�k,1.7,��
2022/03/18,02:10,0.589,0.877,0.561,1.080,0.770,0.351,0.611,0.578,�k,2.3,��
2022/03/18,02:20,0.590,0.879,0.560,1.082,0.769,0.349,0.612,0.577,�k�k��,2.0,��
2022/03/18,02:30,0.590,0.878,0.559,1.080,0.769,0.349,0.613,0.579,�k,2.2,��
2022/03/18,02:40,0.589,0.879,0.559,1.080,0.771,0.349,0.613,0.579,�k,2.5,��
2022/03/18,02:50,0.589,0.877,0.559,1.082,0.771,0.350,0.612,0.576,�k,2.5,��
2022/03/18,03:00,0.589,0.877,0.559,1.078,0.771,0.349,0.611,0.578,�k,2.0,��
2022/03/18,03:10,0.590,0.876,0.561,1.082,0.770,0.350,0.612,0.580,�k�k��,2.2,��
2022/03/18,03:20,0.588,0.879,0.561,1.080,0.772,0.351,0.611,0.578,�k,2.6,��
2022/03/18,03:30,0.589,0.878,0.562,1.082,0.770,0.351,0.612,0.579,�k�k��,2.9,��
2022/03/18,03:40,0.590,0.876,0.560,1.080,0.768,0.348,0.612,0.579,�k,2.6,��
2022/03/18,03:50,0.589,0.876,0.560,1.081,0.771,0.350,0.612,0.578,�k,3.6,��
2022/03/18,04:00,0.590,0.877,0.560,1.082,0.770,0.350,0.612,0.579,�k,3.5,��
2022/03/18,04:10,0.590,0.878,0.560,1.081,0.770,0.349,0.612,0.578,�k,3.4,��
2022/03/18,04:20,0.589,0.876,0.560,1.081,0.771,0.349,0.612,0.579,�k�k��,3.2,��
2022/03/18,04:30,0.589,0.878,0.561,1.082,0.769,0.350,0.613,0.578,�k,4.0,��
2022/03/18,04:40,0.589,0.877,0.560,1.081,0.770,0.349,0.614,0.578,�k�k��,5.2,��
2022/03/18,04:50,0.586,0.877,0.562,1.081,0.771,0.349,0.614,0.578,�k�k��,4.3,��
2022/03/18,05:00,0.587,0.875,0.559,1.081,0.770,0.350,0.611,0.578,�k�k��,5.3,��
2022/03/18,05:10,0.589,0.879,0.560,1.080,0.770,0.348,0.613,0.576,�k�k��,4.6,�L
2022/03/18,05:20,0.590,0.878,0.560,1.078,0.771,0.349,0.611,0.578,�k��,5.2,�L
2022/03/18,05:30,0.590,0.877,0.560,1.081,0.770,0.351,0.613,0.578,�k��,4.8,�L
2022/03/18,05:40,0.590,0.880,0.563,1.084,0.770,0.349,0.614,0.578,���k��,4.0,�L
2022/03/18,05:50,0.590,0.876,0.560,1.080,0.768,0.351,0.612,0.578,���k��,3.2,�L
2022/03/18,06:00,0.590,0.878,0.562,1.082,0.771,0.351,0.612,0.579,�k��,3.7,�L
2022/03/18,06:10,0.590,0.876,0.561,1.084,0.770,0.351,0.613,0.578,���k��,2.6,�L
2022/03/18,06:20,0.590,0.877,0.560,1.081,0.769,0.352,0.613,0.579,���k��,2.6,�L
2022/03/18,06:30,0.592,0.876,0.560,1.080,0.768,0.351,0.610,0.577,���k��,2.9,�L
2022/03/18,06:40,0.589,0.875,0.562,1.081,0.770,0.351,0.613,0.579,�k�k��,1.7,�L
2022/03/18,06:50,0.589,0.875,0.560,1.078,0.767,0.352,0.611,0.578,�k��,2.6,�L
2022/03/18,07:00,0.588,0.873,0.559,1.081,0.767,0.352,0.611,0.577,�k��,2.3,�L
2022/03/18,07:10,0.587,0.875,0.559,1.079,0.765,0.351,0.611,0.577,���k��,2.9,�L
2022/03/18,07:20,0.589,0.871,0.559,1.081,0.766,0.350,0.611,0.578,���k��,2.6,�L
2022/03/18,07:30,0.587,0.872,0.558,1.080,0.762,0.351,0.610,0.576,�k,2.0,�L
2022/03/18,07:40,0.586,0.868,0.558,1.079,0.761,0.350,0.609,0.575,���쓌,1.4,�L
2022/03/18,07:50,0.587,0.868,0.558,1.075,0.760,0.351,0.609,0.577,�k��,1.2,�L
2022/03/18,08:00,0.585,0.867,0.554,1.077,0.759,0.350,0.610,0.576,�k,2.0,�L
2022/03/18,08:10,0.584,0.865,0.554,1.075,0.758,0.353,0.608,0.577,���k��,2.3,�L
2022/03/18,08:20,0.582,0.862,0.554,1.073,0.756,0.351,0.609,0.575,��,3.2,�L
2022/03/18,08:30,0.581,0.864,0.554,1.073,0.757,0.350,0.609,0.574,���k��,3.7,�L
2022/03/18,08:40,0.577,0.859,0.555,1.070,0.757,0.351,0.607,0.574,���k��,3.8,�L
2022/03/18,08:50,0.576,0.859,0.554,1.069,0.754,0.351,0.607,0.576,��,4.0,�L
2022/03/18,09:00,0.575,0.858,0.551,1.067,0.754,0.350,0.606,0.574,��,5.0,�L
2022/03/18,09:10,0.574,0.855,0.552,1.068,0.751,0.349,0.606,0.575,���k��,3.9,�L
2022/03/18,09:20,0.572,0.854,0.552,1.065,0.751,0.348,0.605,0.574,���k��,4.2,�L
2022/03/18,09:30,0.570,0.851,0.550,1.065,0.750,0.348,0.607,0.574,���쓌,3.6,�L
2022/03/18,09:40,0.569,0.853,0.550,1.062,0.750,0.346,0.604,0.573,��,2.5,�L
2022/03/18,09:50,0.569,0.850,0.550,1.060,0.747,0.348,0.606,0.571,���쓌,3.4,�L
2022/03/18,10:00,0.568,0.849,0.550,1.059,0.746,0.348,0.604,0.573,��,3.3,�L
2022/03/18,10:10,0.574,0.849,0.548,1.060,0.744,0.347,0.603,0.572,���쓌,4.1,�L
2022/03/18,10:20,0.576,0.846,0.549,1.058,0.743,0.346,0.604,0.571,���쓌,3.0,�L
2022/03/18,10:30,0.577,0.847,0.549,1.057,0.744,0.346,0.603,0.571,��,3.0,�L
2022/03/18,10:40,0.577,0.845,0.549,1.057,0.744,0.346,0.601,0.570,���쓌,2.3,�L
2022/03/18,10:50,0.575,0.845,0.548,1.056,0.743,0.348,0.602,0.572,���쓌,4.2,�L
2022/03/18,11:00,0.575,0.843,0.548,1.056,0.742,0.350,0.603,0.571,���쓌,3.5,�L
2022/03/18,11:10,0.576,0.843,0.549,1.052,0.743,0.349,0.602,0.570,���k��,3.0,�L
2022/03/18,11:20,0.574,0.843,0.550,1.053,0.740,0.347,0.601,0.570,��,2.2,�L
2022/03/18,11:30,0.575,0.840,0.549,1.050,0.741,0.347,0.601,0.570,��,3.9,�L
2022/03/18,11:40,0.573,0.842,0.549,1.049,0.741,0.349,0.601,0.571,���쓌,3.1,�L
2022/03/18,11:50,0.572,0.844,0.548,1.046,0.740,0.348,0.602,0.570,��,2.9,�L
2022/03/18,12:00,0.574,0.843,0.549,1.046,0.738,0.349,0.602,0.570,��,2.2,�L
2022/03/18,12:10,0.572,0.845,0.549,1.043,0.739,0.348,0.599,0.569,�k��,3.0,�L
2022/03/18,12:20,0.572,0.843,0.548,1.045,0.740,0.349,0.600,0.571,��,2.5,�L
2022/03/18,12:30,0.572,0.842,0.549,1.044,0.741,0.348,0.600,0.568,�k�k��,1.4,�L
2022/03/18,12:40,0.571,0.840,0.546,1.044,0.737,0.348,0.600,0.569,�k��,1.7,�L
2022/03/18,12:50,0.571,0.840,0.546,1.041,0.737,0.348,0.598,0.569,��,3.1,�L
2022/03/18,13:00,0.571,0.840,0.546,1.039,0.735,0.348,0.599,0.568,�k��,1.1,�L
2022/03/18,13:10,0.572,0.839,0.546,1.041,0.735,0.347,0.600,0.567,��,2.5,�L
2022/03/18,13:20,0.569,0.836,0.544,1.037,0.734,0.346,0.598,0.567,�k��,2.3,�L
2022/03/18,13:30,0.570,0.835,0.542,1.037,0.731,0.347,0.598,0.567,���쓌,2.5,�L
2022/03/18,13:40,0.568,0.834,0.543,1.035,0.729,0.346,0.598,0.567,���k��,1.9,�L
2022/03/18,13:50,0.567,0.836,0.545,1.034,0.732,0.346,0.597,0.567,��,1.4,�L
2022/03/18,14:00,0.569,0.832,0.545,1.034,0.731,0.346,0.597,0.566,��,1.1,�L
2022/03/18,14:10,0.566,0.834,0.543,1.030,0.730,0.343,0.598,0.567,�k��,1.2,�L
2022/03/18,14:20,0.568,0.831,0.543,1.034,0.730,0.346,0.596,0.566,�k��,0.9,�L
2022/03/18,14:30,0.568,0.831,0.542,1.029,0.730,0.344,0.594,0.567,�k�k��,1.2,�L
2022/03/18,14:40,0.568,0.831,0.543,1.031,0.728,0.345,0.596,0.568,�k�k��,1.4,�L
2022/03/18,14:50,0.566,0.833,0.542,1.029,0.730,0.346,0.595,0.566,�k,1.7,�L
2022/03/18,15:00,0.566,0.829,0.541,1.030,0.727,0.342,0.598,0.566,�k�k��,2.5,�L
2022/03/18,15:10,0.564,0.832,0.540,1.028,0.728,0.344,0.596,0.566,�k��,2.6,�L
2022/03/18,15:20,0.564,0.831,0.541,1.029,0.729,0.344,0.596,0.566,�k��,3.7,�L
2022/03/18,15:30,0.567,0.830,0.541,1.029,0.728,0.343,0.596,0.567,�k��,4.4,�L
2022/03/18,15:40,0.566,0.831,0.540,1.029,0.727,0.344,0.597,0.567,�k��,5.3,�L
2022/03/18,15:50,0.565,0.831,0.539,1.028,0.729,0.344,0.597,0.566,�k��,5.4,�L
2022/03/18,16:00,0.565,0.833,0.539,1.030,0.727,0.343,0.597,0.566,�k��,5.6,�L
2022/03/18,16:10,0.565,0.832,0.537,1.027,0.728,0.342,0.596,0.565,�k��,4.9,�L
2022/03/18,16:20,0.564,0.832,0.537,1.030,0.727,0.342,0.597,0.566,�k��,5.8,�L
2022/03/18,16:30,0.564,0.834,0.540,1.029,0.727,0.342,0.598,0.567,�k�k��,6.5,�L
2022/03/18,16:40,0.564,0.832,0.539,1.027,0.728,0.344,0.597,0.565,�k�k��,6.2,�L
2022/03/18,16:50,0.565,0.830,0.540,1.028,0.728,0.344,0.596,0.568,�k�k��,6.3,�L
2022/03/18,17:00,0.565,0.829,0.539,1.026,0.728,0.345,0.596,0.566,�k�k��,6.2,�L
2022/03/18,17:10,0.565,0.828,0.539,1.025,0.724,0.343,0.596,0.565,�k�k��,6.2,�L
2022/03/18,17:20,0.565,0.829,0.538,1.026,0.725,0.343,0.594,0.565,�k�k��,5.9,�L
2022/03/18,17:30,0.562,0.828,0.540,1.022,0.724,0.343,0.597,0.566,�k�k��,6.7,�L
2022/03/18,17:40,0.563,0.827,0.538,1.025,0.723,0.342,0.596,0.565,�k�k��,5.8,�L
2022/03/18,17:50,0.563,0.827,0.539,1.021,0.723,0.342,0.594,0.564,�k�k��,7.2,�L
2022/03/18,18:00,0.563,0.826,0.539,1.020,0.724,0.342,0.595,0.564,�k�k��,6.3,�L
2022/03/18,18:10,0.564,0.825,0.536,1.019,0.723,0.341,0.596,0.564,�k�k��,6.6,�L
2022/03/18,18:20,0.563,0.824,0.538,1.020,0.723,0.342,0.595,0.563,�k�k��,6.6,�L
2022/03/18,18:30,0.563,0.822,0.537,1.020,0.721,0.342,0.594,0.565,�k�k��,7.4,�L
2022/03/18,18:40,0.562,0.819,0.536,1.014,0.720,0.342,0.594,0.563,�k�k��,6.5,�L
2022/03/18,18:50,0.563,0.818,0.535,1.013,0.718,0.342,0.592,0.563,�k�k��,7.6,�L
2022/03/18,19:00,0.559,0.818,0.535,1.012,0.716,0.342,0.592,0.563,�k��,8.2,�L
2022/03/18,19:10,0.559,0.817,0.536,1.011,0.714,0.340,0.590,0.563,�k�k��,6.8,�L
2022/03/18,19:20,0.559,0.816,0.534,1.012,0.713,0.341,0.590,0.564,�k�k��,7.0,�L
2022/03/18,19:30,0.559,0.813,0.533,1.009,0.711,0.341,0.589,0.563,�k�k��,6.9,�L
2022/03/18,19:40,0.559,0.815,0.534,1.009,0.711,0.341,0.590,0.563,�k�k��,7.5,�L
2022/03/18,19:50,0.559,0.815,0.534,1.009,0.707,0.341,0.591,0.563,�k��,8.0,�L
2022/03/18,20:00,0.557,0.813,0.535,1.007,0.709,0.341,0.588,0.561,�k��,7.2,�L
2022/03/18,20:10,0.555,0.812,0.534,1.005,0.707,0.342,0.589,0.561,�k�k��,8.3,�L
2022/03/18,20:20,0.556,0.815,0.534,1.007,0.705,0.342,0.590,0.561,�k�k��,12.8,�L
2022/03/18,20:30,0.555,0.813,0.533,1.003,0.704,0.341,0.588,0.561,�k��,9.5,�L
2022/03/18,20:40,0.556,0.813,0.534,1.003,0.702,0.341,0.589,0.560,�k�k��,9.2,�L
2022/03/18,20:50,0.555,0.812,0.534,1.005,0.701,0.339,0.587,0.563,�k�k��,9.1,�L
2022/03/18,21:00,0.554,0.810,0.533,1.003,0.701,0.340,0.588,0.562,�k�k��,10.9,�L
2022/03/18,21:10,0.554,0.809,0.532,1.002,0.699,0.340,0.587,0.561,�k�k��,8.5,�L
2022/03/18,21:20,0.554,0.811,0.531,1.004,0.700,0.339,0.585,0.561,�k�k��,10.0,�L
2022/03/18,21:30,0.554,0.809,0.532,1.002,0.698,0.340,0.586,0.560,�k�k��,8.0,�L
2022/03/18,21:40,0.553,0.812,0.533,1.000,0.696,0.341,0.587,0.561,�k�k��,11.3,�L
2022/03/18,21:50,0.552,0.807,0.531,0.998,0.693,0.339,0.587,0.562,�k�k��,9.7,�L
2022/03/18,22:00,0.555,0.806,0.532,0.998,0.693,0.340,0.586,0.560,�k�k��,8.6,�L
2022/03/18,22:10,0.553,0.807,0.531,0.998,0.692,0.341,0.586,0.559,�k�k��,10.2,�L
2022/03/18,22:20,0.556,0.808,0.530,0.997,0.693,0.340,0.586,0.559,�k�k��,10.8,�L
2022/03/18,22:30,0.552,0.806,0.532,0.995,0.692,0.340,0.586,0.562,�k�k��,14.4,�L
2022/03/18,22:40,0.553,0.805,0.532,0.994,0.689,0.340,0.587,0.560,�k�k��,11.9,�L
2022/03/18,22:50,0.554,0.803,0.531,0.996,0.690,0.340,0.585,0.561,�k�k��,9.3,�L
2022/03/18,23:00,0.550,0.805,0.532,0.993,0.689,0.339,0.584,0.561,�k�k��,12.1,�L
2022/03/18,23:10,0.550,0.804,0.533,0.995,0.690,0.340,0.584,0.559,�k�k��,10.8,�L
2022/03/18,23:20,0.553,0.805,0.532,0.994,0.690,0.341,0.585,0.560,�k�k��,9.9,�L
2022/03/18,23:30,0.550,0.804,0.531,0.992,0.687,0.341,0.585,0.559,�k�k��,8.7,�L
2022/03/18,23:40,0.553,0.804,0.532,0.991,0.686,0.342,0.585,0.560,�k�k��,10.2,�L
2022/03/18,23:50,0.555,0.806,0.533,0.995,0.686,0.340,0.585,0.559,�k�k��,10.8,�L
